EJU2PY LFLL-EGSS

Flight info

Callsign EJU2PY
Flight time 1h 21m
Altitude 38000
Route BUSIL DCT AMORO DCT MOMIL DCT BAGBI DCT SIZZA DCT LAULY DCT BRY DCT CLM DCT KOPOR DCT SOSUN DCT SUBIP UM733 BANVA
Aircraft A320/M-SDE3FGHIRWY/LB1

Departure

Time 2026-05-04 10:22
Airport Lyon Saint-Exupéry Airport (LFLL)

Arrival

Time 2026-05-04 11:44
Airport London Stansted Airport (EGSS)
Time Latitude Longitude Altitude Speed Heading
2026-05-04 09:43 45.72373 5.08277 797 ft 0 kts 358°
2026-05-04 10:10 45.72365 5.08277 797 ft 2 kts 358°
2026-05-04 10:10 45.72349 5.08277 797 ft 2 kts 358°
2026-05-04 10:11 45.72333 5.08275 797 ft 2 kts 50°
2026-05-04 10:11 45.72329 5.08269 797 ft 0 kts 71°
2026-05-04 10:16 45.72515 5.08394 796 ft 10 kts 355°
2026-05-04 10:16 45.72582 5.08386 795 ft 10 kts 355°
2026-05-04 10:16 45.72660 5.08376 792 ft 12 kts 355°
2026-05-04 10:16 45.72737 5.08366 791 ft 10 kts 355°
2026-05-04 10:17 45.72815 5.08356 791 ft 12 kts 354°
2026-05-04 10:17 45.72900 5.08344 790 ft 12 kts 354°
2026-05-04 10:19 45.73686 5.08244 777 ft 21 kts 354°
2026-05-04 10:19 45.73833 5.08229 776 ft 21 kts 359°
2026-05-04 10:19 45.73976 5.08216 775 ft 20 kts 355°
2026-05-04 10:19 45.74115 5.08247 772 ft 21 kts 14°
2026-05-04 10:20 45.74250 5.08291 772 ft 19 kts 13°
2026-05-04 10:20 45.74384 5.08336 770 ft 21 kts 13°
2026-05-04 10:20 45.74521 5.08382 770 ft 20 kts 13°
2026-05-04 10:20 45.74632 5.08446 767 ft 11 kts 50°
2026-05-04 10:21 45.74646 5.08502 767 ft 7 kts 86°
2026-05-04 10:21 45.74637 5.08557 768 ft 3 kts 111°
2026-05-04 10:21 45.74626 5.08594 769 ft 9 kts 128°
2026-05-04 10:21 45.74526 5.08616 771 ft 23 kts 175°
2026-05-04 10:22 45.72920 5.08846 912 ft 154 kts 171°
2026-05-04 10:22 45.72191 5.08964 1373 ft 156 kts 171°
2026-05-04 10:22 45.71126 5.09097 2239 ft 154 kts 176°
2026-05-04 10:23 45.70063 5.09212 3051 ft 151 kts 176°
2026-05-04 10:23 45.69032 5.09324 3870 ft 149 kts 177°
2026-05-04 10:25 45.69713 5.17304 8383 ft 263 kts 17°
2026-05-04 10:25 45.71464 5.18125 9238 ft 265 kts 17°
2026-05-04 10:25 45.73233 5.18919 9908 ft 276 kts
2026-05-04 10:25 45.75198 5.18794 10260 ft 291 kts 338°
2026-05-04 10:26 45.77041 5.17468 10583 ft 309 kts 324°
2026-05-04 10:26 45.78955 5.15800 10907 ft 332 kts 324°
2026-05-04 10:26 45.80972 5.14037 11531 ft 342 kts 324°
2026-05-04 10:26 45.83006 5.12269 11955 ft 347 kts 325°
2026-05-04 10:27 45.85098 5.10460 12558 ft 351 kts 326°
2026-05-04 10:27 45.87194 5.08654 13377 ft 355 kts 326°
2026-05-04 10:27 45.89342 5.06804 14107 ft 360 kts 326°
2026-05-04 10:27 45.91482 5.04964 14770 ft 364 kts 326°
2026-05-04 10:28 45.93679 5.03070 15477 ft 368 kts 326°
2026-05-04 10:28 45.95894 5.01153 16236 ft 373 kts 325°
2026-05-04 10:28 45.98136 4.99211 16957 ft 377 kts 326°
2026-05-04 10:28 46.00376 4.97269 17628 ft 381 kts 326°
2026-05-04 10:29 46.02667 4.95280 18307 ft 385 kts 325°
2026-05-04 10:29 46.04947 4.93303 18872 ft 389 kts 325°
2026-05-04 10:29 46.07289 4.91270 19424 ft 393 kts 325°
2026-05-04 10:29 46.09625 4.89237 19982 ft 397 kts 325°
2026-05-04 10:30 46.12021 4.87150 20546 ft 401 kts 325°
2026-05-04 10:30 46.14431 4.85048 21094 ft 405 kts 325°
2026-05-04 10:30 46.16830 4.82957 21619 ft 409 kts 325°
2026-05-04 10:30 46.19287 4.80812 22149 ft 413 kts 324°
2026-05-04 10:31 46.21768 4.78644 22684 ft 417 kts 324°
2026-05-04 10:31 46.24236 4.76487 23202 ft 420 kts 324°
2026-05-04 10:32 46.39565 4.63018 25818 ft 438 kts 324°
2026-05-04 10:33 46.42190 4.60696 26237 ft 442 kts 324°
2026-05-04 10:33 46.44802 4.58402 26656 ft 445 kts 326°
2026-05-04 10:33 46.47647 4.56476 27089 ft 454 kts 336°
2026-05-04 10:33 46.50715 4.55244 27546 ft 461 kts 347°
2026-05-04 10:34 46.53933 4.54770 27945 ft 467 kts 358°
2026-05-04 10:34 46.57177 4.54962 28336 ft 471 kts
2026-05-04 10:34 46.60468 4.55418 28723 ft 475 kts
2026-05-04 10:34 46.63727 4.56039 29086 ft 478 kts
2026-05-04 10:35 46.67051 4.56769 29471 ft 481 kts
2026-05-04 10:35 46.70351 4.57515 29838 ft 484 kts
2026-05-04 10:35 46.73669 4.58228 30171 ft 487 kts
2026-05-04 10:35 46.77067 4.58770 30480 ft 488 kts
2026-05-04 10:36 46.80471 4.58580 30779 ft 488 kts 351°
2026-05-04 10:36 46.83766 4.57671 31073 ft 486 kts 341°
2026-05-04 10:36 46.86970 4.56073 31365 ft 483 kts 333°
2026-05-04 10:36 46.90014 4.54099 31657 ft 484 kts 332°
2026-05-04 10:37 46.93109 4.52081 32046 ft 483 kts 332°
2026-05-04 10:37 46.96190 4.50075 32541 ft 482 kts 332°
2026-05-04 10:37 46.99221 4.48098 32951 ft 480 kts 332°
2026-05-04 10:37 47.02288 4.46094 33365 ft 479 kts 331°
2026-05-04 10:39 47.20394 4.34213 35639 ft 470 kts 331°
2026-05-04 10:39 47.23339 4.32267 35958 ft 469 kts 331°
2026-05-04 10:39 47.26329 4.30294 36285 ft 468 kts 331°
2026-05-04 10:40 47.29271 4.28353 36595 ft 467 kts 331°
2026-05-04 10:40 47.32241 4.26394 36906 ft 465 kts 331°
2026-05-04 10:40 47.35207 4.24436 37228 ft 464 kts 331°
2026-05-04 10:40 47.38145 4.22490 37514 ft 463 kts 331°
2026-05-04 10:41 47.41063 4.20554 37805 ft 462 kts 331°
2026-05-04 10:41 47.44005 4.18594 37985 ft 461 kts 331°
2026-05-04 10:41 47.46937 4.16637 37997 ft 460 kts 331°
2026-05-04 10:42 47.52746 4.12748 37998 ft 460 kts 331°
2026-05-04 10:42 47.58558 4.08864 37986 ft 460 kts 331°
2026-05-04 10:43 47.64420 4.04949 37989 ft 460 kts 331°
2026-05-04 10:45 47.87750 3.89255 38002 ft 461 kts 331°
2026-05-04 10:45 47.93582 3.85303 38006 ft 461 kts 331°
2026-05-04 10:46 47.99414 3.81346 38000 ft 461 kts 331°
2026-05-04 10:46 48.05280 3.77366 38004 ft 461 kts 331°
2026-05-04 10:47 48.11102 3.73391 37996 ft 461 kts 331°
2026-05-04 10:47 48.16528 3.68513 37999 ft 452 kts 315°
2026-05-04 10:49 48.33533 3.41253 38025 ft 447 kts 307°
2026-05-04 10:50 48.37743 3.34361 38014 ft 447 kts 308°
2026-05-04 10:51 48.57335 3.18881 38005 ft 462 kts 332°
2026-05-04 10:52 48.60264 3.16999 38006 ft 462 kts 332°
2026-05-04 10:52 48.66197 3.13180 38014 ft 462 kts 333°
2026-05-04 10:54 48.89456 2.97051 38006 ft 457 kts 326°
2026-05-04 10:56 49.11500 2.77701 38024 ft 457 kts 326°
2026-05-04 10:57 49.16997 2.72845 38020 ft 458 kts 326°
2026-05-04 10:57 49.22496 2.67976 38003 ft 457 kts 326°
2026-05-04 10:58 49.28003 2.63087 38015 ft 457 kts 326°
2026-05-04 10:58 49.33493 2.58192 38005 ft 457 kts 326°
2026-05-04 10:59 49.38993 2.53275 38007 ft 458 kts 326°
2026-05-04 10:59 49.44471 2.48382 38007 ft 457 kts 326°
2026-05-04 11:00 49.49902 2.43348 38012 ft 454 kts 320°
2026-05-04 11:01 49.64125 2.18061 38027 ft 446 kts 306°
2026-05-04 11:02 49.66061 2.14380 38022 ft 446 kts 306°
2026-05-04 11:05 49.95266 1.58062 38015 ft 448 kts 306°
2026-05-04 11:06 49.99283 1.50721 38019 ft 451 kts 314°
2026-05-04 11:06 50.04028 1.44273 38022 ft 452 kts 316°
2026-05-04 11:10 50.37241 0.98696 35354 ft 470 kts 315°
2026-05-04 11:12 50.53368 0.76784 31423 ft 446 kts 316°
2026-05-04 11:12 50.55742 0.73674 30858 ft 442 kts 316°
2026-05-04 11:12 50.58067 0.70612 30314 ft 438 kts 316°
2026-05-04 11:12 50.60370 0.67553 29721 ft 434 kts 316°
2026-05-04 11:13 50.62657 0.64497 29208 ft 427 kts 316°
2026-05-04 11:13 50.64913 0.61470 28687 ft 421 kts 315°
2026-05-04 11:13 50.67141 0.58476 28178 ft 415 kts 315°
2026-05-04 11:13 50.69309 0.55564 27698 ft 409 kts 315°
2026-05-04 11:14 50.70040 0.54582 27540 ft 407 kts 315°
2026-05-04 11:14 50.74277 0.48890 26625 ft 396 kts 315°
2026-05-04 11:16 50.89727 0.27985 22969 ft 370 kts 316°
2026-05-04 11:16 50.91661 0.25357 22488 ft 367 kts 316°
2026-05-04 11:16 50.93597 0.22722 22000 ft 364 kts 316°
2026-05-04 11:17 50.95515 0.20110 21531 ft 362 kts 317°
2026-05-04 11:17 50.97402 0.17538 21060 ft 360 kts 317°
2026-05-04 11:19 51.11171 0.01187 18768 ft 349 kts 323°
2026-05-04 11:19 51.13172 -0.01029 18524 ft 348 kts 323°
2026-05-04 11:19 51.15143 -0.03216 18242 ft 348 kts 323°
2026-05-04 11:19 51.17126 -0.05421 17951 ft 346 kts 323°
2026-05-04 11:20 51.19111 -0.07629 17721 ft 345 kts 323°
2026-05-04 11:20 51.21062 -0.09796 17445 ft 344 kts 323°
2026-05-04 11:20 51.23017 -0.11972 17183 ft 342 kts 323°
2026-05-04 11:20 51.24970 -0.14151 16927 ft 341 kts 323°
2026-05-04 11:22 51.38307 -0.29108 15157 ft 329 kts 323°
2026-05-04 11:22 51.40203 -0.31181 14908 ft 329 kts 328°
2026-05-04 11:23 51.42328 -0.32578 14660 ft 330 kts 345°
2026-05-04 11:23 51.44582 -0.32942 14413 ft 330 kts
2026-05-04 11:24 51.57156 -0.24397 12895 ft 325 kts 25°
2026-05-04 11:25 51.59207 -0.22829 12698 ft 324 kts 25°
2026-05-04 11:25 51.61216 -0.21288 12459 ft 323 kts 25°
2026-05-04 11:25 51.63247 -0.19722 12210 ft 321 kts 25°
2026-05-04 11:26 51.67274 -0.16617 11728 ft 319 kts 25°
2026-05-04 11:27 51.80793 -0.06544 10095 ft 300 kts 22°
2026-05-04 11:28 51.82716 -0.05223 9851 ft 298 kts 22°
2026-05-04 11:28 51.84601 -0.03918 9622 ft 296 kts 22°
2026-05-04 11:28 51.86500 -0.02597 9380 ft 295 kts 22°
2026-05-04 11:28 51.88365 -0.01293 9159 ft 293 kts 22°
2026-05-04 11:29 51.90245 0.00025 8945 ft 291 kts 23°
2026-05-04 11:29 51.92082 0.01320 8722 ft 290 kts 23°
2026-05-04 11:29 51.93913 0.02611 8563 ft 280 kts 23°
2026-05-04 11:29 51.95665 0.03849 8434 ft 269 kts 23°
2026-05-04 11:31 52.07705 0.06668 7355 ft 248 kts
2026-05-04 11:33 52.08777 -0.03183 6502 ft 240 kts 188°
2026-05-04 11:33 52.07120 -0.03611 6376 ft 240 kts 189°
2026-05-04 11:33 52.05488 -0.04071 6253 ft 240 kts 190°
2026-05-04 11:34 52.03838 -0.04544 6141 ft 240 kts 190°
2026-05-04 11:34 52.02207 -0.05008 6045 ft 239 kts 189°
2026-05-04 11:34 52.00549 -0.05288 5846 ft 239 kts 173°
2026-05-04 11:34 51.99032 -0.04318 5532 ft 236 kts 143°
2026-05-04 11:35 51.97731 -0.02747 5263 ft 235 kts 144°
2026-05-04 11:35 51.96387 -0.01225 4981 ft 234 kts 145°
2026-05-04 11:35 51.95037 0.00266 4691 ft 234 kts 146°
2026-05-04 11:35 51.93705 0.01716 4461 ft 228 kts 149°
2026-05-04 11:36 51.92244 0.02645 4175 ft 226 kts 169°
2026-05-04 11:36 51.90676 0.02726 3869 ft 224 kts 188°
2026-05-04 11:36 51.89198 0.02140 3696 ft 217 kts 195°
2026-05-04 11:36 51.87744 0.01523 3393 ft 217 kts 194°
2026-05-04 11:37 51.86293 0.00921 3156 ft 213 kts 194°
2026-05-04 11:37 51.84865 0.00353 2961 ft 209 kts 193°
2026-05-04 11:37 51.83441 -0.00183 2912 ft 209 kts 193°
2026-05-04 11:37 51.82035 -0.00704 2865 ft 210 kts 192°
2026-05-04 11:38 51.80613 -0.01232 2822 ft 210 kts 192°
2026-05-04 11:38 51.79181 -0.01766 2771 ft 210 kts 192°
2026-05-04 11:38 51.77762 -0.02235 2717 ft 209 kts 183°
2026-05-04 11:38 51.76350 -0.01920 2667 ft 200 kts 157°
2026-05-04 11:39 51.75266 -0.00658 2621 ft 192 kts 125°
2026-05-04 11:39 51.74814 0.01304 2573 ft 189 kts 90°
2026-05-04 11:40 51.79798 0.10468 2439 ft 176 kts 42°
2026-05-04 11:41 51.80681 0.11785 2259 ft 173 kts 43°
2026-05-04 11:41 51.81570 0.13111 2043 ft 173 kts 42°
2026-05-04 11:41 51.82417 0.14377 1837 ft 158 kts 42°
2026-05-04 11:41 51.83181 0.15517 1614 ft 142 kts 42°
2026-05-04 11:42 51.83894 0.16576 1396 ft 135 kts 42°
2026-05-04 11:42 51.84573 0.17592 1262 ft 133 kts 42°
2026-05-04 11:42 51.85246 0.18622 1084 ft 132 kts 43°
2026-05-04 11:42 51.85914 0.19609 903 ft 131 kts 41°
2026-05-04 11:43 51.86583 0.20600 702 ft 131 kts 43°
2026-05-04 11:43 51.87246 0.21601 519 ft 129 kts 42°
2026-05-04 11:43 51.87896 0.22573 350 ft 123 kts 42°
2026-05-04 11:43 51.88436 0.23382 338 ft 83 kts 43°
2026-05-04 11:44 51.88738 0.23832 339 ft 40 kts 42°
2026-05-04 11:44 51.88872 0.24173 350 ft 30 kts 73°
2026-05-04 11:44 51.88916 0.24409 350 ft 15 kts 76°
2026-05-04 11:44 51.88915 0.24492 353 ft 2 kts 115°
2026-05-04 11:45 51.88902 0.24513 353 ft 5 kts 143°
2026-05-04 11:45 51.88880 0.24556 354 ft 5 kts 129°
2026-05-04 11:45 51.88857 0.24599 353 ft 7 kts 131°
2026-05-04 11:45 51.88838 0.24635 356 ft 3 kts 131°
2026-05-04 11:46 51.88836 0.24639 357 ft 0 kts 131°
2026-05-04 11:46 51.88825 0.24659 354 ft 5 kts 130°
2026-05-04 11:46 51.88813 0.24707 354 ft 4 kts 96°
2026-05-04 11:47 51.88822 0.24745 359 ft 3 kts 52°
2026-05-04 11:47 51.88836 0.24765 354 ft 2 kts 39°
2026-05-04 11:47 51.88852 0.24789 352 ft 4 kts 41°
2026-05-04 11:47 51.88892 0.24845 357 ft 10 kts 41°
2026-05-04 11:48 51.88951 0.24934 355 ft 13 kts 44°
2026-05-04 11:48 51.89022 0.25044 353 ft 16 kts 44°
2026-05-04 11:48 51.89108 0.25176 354 ft 18 kts 43°
2026-05-04 11:48 51.89149 0.25325 349 ft 16 kts 115°
2026-05-04 11:49 51.89070 0.25468 349 ft 18 kts 135°
2026-05-04 11:49 51.88986 0.25609 349 ft 10 kts 136°
2026-05-04 11:49 51.88941 0.25575 351 ft 7 kts 221°
2026-05-04 11:49 51.88924 0.25550 351 ft 0 kts 223°